Puyallup, WA

3:39 PM PDT on August 30, 2016 (GMT -0700)
Pierce County - Thun Field

Weather History for KPLU - September, 2013

Change the Weather History Date:

Monday, September 30, 2013

  Actual Average (KTCM) Record (KTCM)
Temperature  
Mean Temperature 50 °F -  
Max Temperature 55 °F 64 °F 81 °F (1992)
Min Temperature 46 °F 43 °F 33 °F (1985)
Degree Days  
Heating Degree Days 14    
Moisture  
Dew Point 48 °F    
Average Humidity 95    
Maximum Humidity 100    
Minimum Humidity 82    
Precipitation  
Precipitation 0.82 in - - ()
Sea Level Pressure  
Sea Level Pressure 29.75 in    
Wind  
Wind Speed 3 mph (SSW)    
Max Wind Speed 10 mph    
Max Gust Speed 20 mph    
Visibility 8 miles    
Events Rain    
Averages and records for this station are not official NWS values.
T = Trace of Precipitation, MM = Missing Value Source: NWS Daily Summary

Daily Weather History Graph

Daily Weather History Graph

Search for Another Location

Airport or City:

Trip Planner

Search our weather history database for the weather conditions in past years. The results will help you decide how hot, cold, wet, or windy it might be!

Date:

Astronomy

Sep. 30, 2013 Rise Set
Actual Time 7:07 AM PDT 6:50 PM PDT
Civil Twilight 6:36 AM PDT 7:20 PM PDT
Nautical Twilight 6:01 AM PDT 7:55 PM PDT
Astronomical Twilight 5:25 AM PDT 8:31 PM PDT
Moon 2:34 AM PDT 4:36 PM PDT
Length of Visible Light 12h 43m
Length of Day
11h 42m
Waning Crescent, 18% of the Moon is Illuminated
Sep 30
Waning Crescent
Oct 4
New
Oct 11
First Quarter
Oct 18
Full
Oct 26
Last Quarter

Hourly Weather History & Observations

Time (PDT) Temp. Windchill Dew Point Humidity Pressure Visibility Wind Dir Wind Speed Gust Speed Precip Events Conditions
12:15 AM 50.0 °F - 46.4 °F 87% 29.50 in 10.0 mi Calm Calm - N/A   Unknown
12:35 AM 50.0 °F - 46.4 °F 87% 29.50 in 10.0 mi South 5.8 mph - N/A   Unknown
12:55 AM 50.0 °F - 44.6 °F 82% 29.51 in 10.0 mi Calm Calm - N/A   Unknown
1:15 AM 50.0 °F - 44.6 °F 82% 29.51 in 10.0 mi Calm Calm - N/A   Unknown
1:35 AM 48.2 °F - 46.4 °F 93% 29.51 in 5.0 mi SW 10.4 mph - 0.01 in Rain Light Rain
1:55 AM 48.2 °F - 46.4 °F 93% 29.53 in 4.0 mi Calm Calm - 0.04 in Rain Rain
2:15 AM 48.2 °F - 48.2 °F 100% 29.54 in 7.0 mi Calm Calm - N/A Rain Light Rain
2:35 AM 48.2 °F - 48.2 °F 100% 29.55 in 3.0 mi Calm Calm - 0.05 in Rain Rain
2:55 AM 48.2 °F - 48.2 °F 100% 29.55 in 5.0 mi South 5.8 mph - 0.09 in Rain Light Rain
3:15 AM 48.2 °F - 48.2 °F 100% 29.55 in 10.0 mi Calm Calm - N/A   Unknown
3:35 AM 48.2 °F - 48.2 °F 100% 29.55 in 4.0 mi Calm Calm - 0.02 in Rain Light Rain
3:55 AM 48.2 °F - 48.2 °F 100% 29.55 in 10.0 mi South 5.8 mph - 0.02 in   Unknown
4:15 AM 48.2 °F - 48.2 °F 100% 29.56 in 10.0 mi South 10.4 mph - N/A   Unknown
4:35 AM 48.2 °F - 48.2 °F 100% 29.56 in 5.0 mi Calm Calm - 0.04 in Rain Light Rain
4:55 AM 48.2 °F - 48.2 °F 100% 29.56 in 10.0 mi Calm Calm - 0.04 in   Unknown
5:15 AM 48.2 °F - 48.2 °F 100% 29.56 in 9.0 mi South 4.6 mph - N/A   Unknown
5:35 AM 48.2 °F - 48.2 °F 100% 29.56 in 10.0 mi South 10.4 mph - N/A   Unknown
5:55 AM 48.2 °F - 48.2 °F 100% 29.58 in 4.0 mi Calm Calm - 0.04 in Rain Light Rain
6:15 AM 48.2 °F - 48.2 °F 100% 29.58 in 5.0 mi Calm Calm - 0.04 in Rain Light Rain
6:35 AM 48.2 °F - 48.2 °F 100% 29.60 in 8.0 mi Calm Calm - 0.06 in Rain Light Rain
6:55 AM 48.2 °F - 48.2 °F 100% 29.60 in 10.0 mi Calm Calm - 0.06 in   Unknown
7:15 AM 48.2 °F - 48.2 °F 100% 29.59 in 5.0 mi South 5.8 mph - 0.02 in Rain Light Rain
7:35 AM 48.2 °F - 48.2 °F 100% 29.64 in 3.0 mi Calm Calm - 0.12 in Rain Rain
7:55 AM 48.2 °F - 48.2 °F 100% 29.63 in 2.5 mi Calm Calm - 0.27 in Rain Rain
8:15 AM 48.2 °F - 48.2 °F 100% 29.65 in 7.0 mi SW 4.6 mph - N/A Rain Light Rain
8:35 AM 48.2 °F - 48.2 °F 100% 29.67 in 4.0 mi Calm Calm - 0.05 in Rain Light Rain
8:55 AM 50.0 °F - 50.0 °F 100% 29.68 in 10.0 mi Calm Calm - 0.05 in Rain Light Rain
9:15 AM 50.0 °F - 50.0 °F 100% 29.70 in 2.0 mi SW 4.6 mph - 0.04 in Rain Light Rain
9:35 AM 50.0 °F - 50.0 °F 100% 29.71 in 10.0 mi Calm Calm - 0.04 in   Unknown
9:55 AM 53.6 °F - 51.8 °F 94% 29.71 in 10.0 mi South 3.5 mph - 0.04 in   Unknown
10:15 AM 51.8 °F - 50.0 °F 94% 29.72 in 10.0 mi SSW 3.5 mph - N/A   Unknown
10:35 AM 50.0 °F - 50.0 °F 100% 29.73 in 3.0 mi SW 5.8 mph 16.1 mph 0.01 in Rain Light Rain
10:55 AM 51.8 °F - 50.0 °F 94% 29.74 in 9.0 mi Calm Calm - 0.01 in   Unknown
11:15 AM 53.6 °F - 51.8 °F 94% 29.75 in 10.0 mi SW 4.6 mph - N/A   Unknown
11:35 AM 53.6 °F - 50.0 °F 88% 29.77 in 7.0 mi SSW 5.8 mph - 0.01 in Rain Light Rain
11:55 AM 50.0 °F - 50.0 °F 100% 29.77 in 8.0 mi SW 5.8 mph - 0.02 in Rain Light Rain
12:15 PM 51.8 °F - 50.0 °F 94% 29.78 in 10.0 mi SSW 3.5 mph - N/A   Unknown
12:35 PM 53.6 °F - 50.0 °F 88% 29.79 in 10.0 mi SSW 4.6 mph - N/A   Unknown
12:55 PM 55.4 °F - 50.0 °F 82% 29.80 in 10.0 mi SSW 9.2 mph - N/A   Unknown
1:15 PM 55.4 °F - 50.0 °F 82% 29.80 in 10.0 mi South 3.5 mph 17.3 mph N/A   Unknown
1:35 PM 53.6 °F - 50.0 °F 88% 29.81 in 5.0 mi South 6.9 mph 17.3 mph 0.01 in Rain Light Rain
1:55 PM 51.8 °F - 50.0 °F 94% 29.82 in 4.0 mi South 3.5 mph - 0.02 in Rain Light Rain
2:15 PM 51.8 °F - 50.0 °F 94% 29.82 in 10.0 mi Calm Calm - N/A Rain Light Rain
2:35 PM 51.8 °F - 50.0 °F 94% 29.83 in 3.0 mi SSW 3.5 mph - 0.01 in Rain Light Rain
2:55 PM 50.0 °F - 50.0 °F 100% 29.83 in 5.0 mi SSW 9.2 mph - 0.02 in Rain Light Rain
3:15 PM 50.0 °F - 50.0 °F 100% 29.84 in 10.0 mi SSW 8.1 mph - N/A Rain Light Rain
3:35 PM 51.8 °F - 50.0 °F 94% 29.85 in 10.0 mi SSW 5.8 mph - N/A   Unknown
3:55 PM 53.6 °F - 50.0 °F 88% 29.85 in 10.0 mi SSW 6.9 mph - N/A   Unknown
4:15 PM 53.6 °F - 48.2 °F 82% 29.85 in 10.0 mi Calm Calm - N/A   Unknown
4:35 PM 53.6 °F - 48.2 °F 82% 29.86 in 10.0 mi SSW 4.6 mph - N/A   Unknown
4:55 PM 51.8 °F - 48.2 °F 88% 29.87 in 4.0 mi WSW 5.8 mph 19.6 mph 0.01 in Rain Light Rain
5:15 PM 50.0 °F - 48.2 °F 94% 29.88 in 10.0 mi SW 3.5 mph - N/A   Unknown
5:35 PM 51.8 °F - 48.2 °F 88% 29.88 in 10.0 mi SSW 6.9 mph - N/A   Unknown
5:55 PM 51.8 °F - 46.4 °F 82% 29.89 in 10.0 mi Calm Calm - N/A   Unknown
6:15 PM 51.8 °F - 46.4 °F 82% 29.89 in 10.0 mi Calm Calm - N/A Rain Light Rain
6:35 PM 50.0 °F - 48.2 °F 94% 29.90 in 4.0 mi Calm Calm - 0.01 in Rain Light Rain
6:55 PM 48.2 °F - 46.4 °F 93% 29.90 in 8.0 mi SW 3.5 mph - 0.02 in Rain Light Rain
7:15 PM 48.2 °F - 46.4 °F 93% 29.90 in 10.0 mi SSW 3.5 mph - N/A   Unknown
7:35 PM 48.2 °F - 46.4 °F 93% 29.91 in 10.0 mi Calm Calm - N/A   Unknown
7:55 PM 48.2 °F - 46.4 °F 93% 29.90 in 10.0 mi South 4.6 mph - N/A   Unknown
8:15 PM 48.2 °F - 46.4 °F 93% 29.92 in 4.0 mi SW 4.6 mph 16.1 mph 0.02 in Rain Rain
8:35 PM 48.2 °F - 48.2 °F 100% 29.92 in 5.0 mi Calm Calm - 0.03 in Rain Light Rain
8:55 PM 48.2 °F - 48.2 °F 100% 29.93 in 10.0 mi SSW 3.5 mph - 0.03 in   Unknown
9:15 PM 48.2 °F - 48.2 °F 100% 29.94 in 3.0 mi SW 3.5 mph - 0.02 in Rain Light Rain
9:35 PM 48.2 °F - 48.2 °F 100% 29.95 in 6.0 mi South 4.6 mph - 0.02 in Rain Light Rain
9:55 PM 48.2 °F - 46.4 °F 93% 29.95 in 10.0 mi Calm Calm - 0.03 in   Unknown
10:15 PM 48.2 °F - 46.4 °F 93% 29.95 in 8.0 mi Calm Calm - 0.01 in Rain Light Rain
10:35 PM 46.4 °F - 46.4 °F 100% 29.95 in 10.0 mi Calm Calm - 0.01 in   Unknown
10:55 PM 46.4 °F - 46.4 °F 100% 29.95 in 10.0 mi Calm Calm - 0.01 in   Unknown
11:15 PM 46.4 °F - 46.4 °F 100% 29.95 in 10.0 mi Calm Calm - N/A   Unknown
11:35 PM 46.4 °F 45.2 °F 46.4 °F 100% 29.95 in 10.0 mi SSE 3.5 mph - N/A   Unknown
11:55 PM 48.2 °F - 44.6 °F 87% 29.94 in 10.0 mi Calm Calm - N/A   Unknown